Time,TemperatureF,DewpointF,PressureIn,WindDirection,WindDirectionDegrees,WindSpeedMPH,WindSpeedGustMPH,Humidity,HourlyPrecipIn,Conditions,Clouds,dailyrainin,SoftwareType,DateUTC
2013-04-16 00:00:00,56.4,48.2,30.01,SSW,197,6.0,-999.0,74,0.00,,,0.01,Wunderground v.1.15,2013-04-16 04:00:00,
2013-04-16 00:04:00,56.3,48.5,30.00,SSW,193,6.0,-999.0,75,0.00,,,0.01,Wunderground v.1.15,2013-04-16 04:04:00,
2013-04-16 00:10:00,56.2,48.4,30.01,SSW,205,6.0,-999.0,75,0.00,,,0.00,Wunderground v.1.15,2013-04-16 04:10:00,
2013-04-16 00:15:00,56.2,48.4,30.00,SSW,193,7.0,-999.0,75,0.00,,,0.00,Wunderground v.1.15,2013-04-16 04:15:00,
2013-04-16 00:19:00,56.3,48.5,30.01,SSW,200,7.0,-999.0,75,0.00,,,0.00,Wunderground v.1.15,2013-04-16 04:19:00,
2013-04-16 00:24:00,56.2,48.7,30.00,South,182,7.0,-999.0,76,0.00,,,0.00,Wunderground v.1.15,2013-04-16 04:24:00,
2013-04-16 00:29:00,56.2,48.7,30.00,South,185,7.0,-999.0,76,0.00,,,0.00,Wunderground v.1.15,2013-04-16 04:29:00,
2013-04-16 00:34:00,56.3,48.5,30.00,South,185,8.0,-999.0,75,0.00,,,0.00,Wunderground v.1.15,2013-04-16 04:34:00,
2013-04-16 00:39:00,56.2,48.7,30.00,SW,217,8.0,-999.0,76,0.00,,,0.00,Wunderground v.1.15,2013-04-16 04:39:00,
2013-04-16 00:44:00,56.2,48.7,30.00,South,188,8.0,-999.0,76,0.00,,,0.00,Wunderground v.1.15,2013-04-16 04:44:00,
2013-04-16 00:50:00,56.2,48.7,30.00,South,189,9.0,-999.0,76,0.00,,,0.00,Wunderground v.1.15,2013-04-16 04:50:00,
2013-04-16 00:55:00,56.2,48.7,30.00,South,185,9.0,-999.0,76,0.00,,,0.00,Wunderground v.1.15,2013-04-16 04:55:00,
2013-04-16 01:00:00,56.2,48.7,30.00,SSW,194,9.0,-999.0,76,0.00,,,0.00,Wunderground v.1.15,2013-04-16 05:00:00,
2013-04-16 01:09:00,56.1,48.6,30.00,SSW,203,8.0,-999.0,76,0.00,,,0.00,Wunderground v.1.15,2013-04-16 05:09:00,
2013-04-16 01:14:00,56.2,48.7,30.00,SSW,212,9.0,-999.0,76,0.00,,,0.00,Wunderground v.1.15,2013-04-16 05:14:00,
2013-04-16 01:19:00,56.1,48.6,30.00,SSW,198,9.0,-999.0,76,0.00,,,0.00,Wunderground v.1.15,2013-04-16 05:19:00,
2013-04-16 01:25:00,56.1,48.6,29.99,South,190,9.0,-999.0,76,0.00,,,0.00,Wunderground v.1.15,2013-04-16 05:25:00,
2013-04-16 01:30:00,55.9,48.4,29.99,SSW,211,8.0,-999.0,76,0.00,,,0.00,Wunderground v.1.15,2013-04-16 05:30:00,
2013-04-16 01:35:00,56.1,48.6,29.99,SSW,194,8.0,-999.0,76,0.00,,,0.00,Wunderground v.1.15,2013-04-16 05:35:00,
2013-04-16 01:40:00,56.2,48.7,29.99,SSW,206,9.0,-999.0,76,0.00,,,0.00,Wunderground v.1.15,2013-04-16 05:40:00,
2013-04-16 01:45:00,56.0,48.5,29.99,SSW,195,9.0,-999.0,76,0.00,,,0.00,Wunderground v.1.15,2013-04-16 05:45:00,
2013-04-16 01:50:00,56.3,48.8,29.99,SSW,196,9.0,-999.0,76,0.00,,,0.00,Wunderground v.1.15,2013-04-16 05:50:00,
2013-04-16 01:55:00,56.2,48.7,29.99,South,185,9.0,-999.0,76,0.00,,,0.00,Wunderground v.1.15,2013-04-16 05:55:00,
2013-04-16 02:00:00,56.2,48.7,29.99,SSW,200,9.0,-999.0,76,0.00,,,0.00,Wunderground v.1.15,2013-04-16 06:00:00,
2013-04-16 02:05:00,56.1,48.6,29.99,SW,218,10.0,-999.0,76,0.00,,,0.00,Wunderground v.1.15,2013-04-16 06:05:00,
2013-04-16 02:10:00,56.2,48.7,29.99,SSW,196,10.0,-999.0,76,0.00,,,0.00,Wunderground v.1.15,2013-04-16 06:10:00,
2013-04-16 02:15:00,56.1,48.6,29.99,SSW,206,9.0,-999.0,76,0.00,,,0.00,Wunderground v.1.15,2013-04-16 06:15:00,
2013-04-16 02:20:00,56.1,49.0,29.99,SSW,200,9.0,-999.0,77,0.00,,,0.00,Wunderground v.1.15,2013-04-16 06:20:00,
2013-04-16 02:25:00,56.2,49.1,29.99,SSW,202,10.0,-999.0,77,0.00,,,0.00,Wunderground v.1.15,2013-04-16 06:25:00,
2013-04-16 02:30:00,56.3,49.2,29.99,SW,219,10.0,-999.0,77,0.00,,,0.00,Wunderground v.1.15,2013-04-16 06:30:00,
2013-04-16 02:35:00,56.3,49.2,29.99,SSW,202,11.0,-999.0,77,0.00,,,0.00,Wunderground v.1.15,2013-04-16 06:35:00,
2013-04-16 02:40:00,56.3,49.2,29.99,SSW,202,12.0,-999.0,77,0.00,,,0.00,Wunderground v.1.15,2013-04-16 06:40:00,
2013-04-16 02:45:00,56.4,49.3,29.98,South,190,12.0,-999.0,77,0.00,,,0.00,Wunderground v.1.15,2013-04-16 06:45:00,
2013-04-16 02:50:00,56.3,49.2,29.98,SSW,213,11.0,-999.0,77,0.00,,,0.00,Wunderground v.1.15,2013-04-16 06:50:00,
2013-04-16 02:55:00,56.1,49.3,29.98,SSW,212,10.0,-999.0,78,0.00,,,0.00,Wunderground v.1.15,2013-04-16 06:55:00,
2013-04-16 03:00:00,56.4,49.6,29.98,SW,214,12.0,-999.0,78,0.00,,,0.00,Wunderground v.1.15,2013-04-16 07:00:00,
2013-04-16 03:05:00,56.5,49.7,29.98,SSW,202,12.0,-999.0,78,0.00,,,0.00,Wunderground v.1.15,2013-04-16 07:05:00,
2013-04-16 03:10:00,56.4,49.6,29.97,SSW,194,12.0,-999.0,78,0.00,,,0.00,Wunderground v.1.15,2013-04-16 07:10:00,
2013-04-16 03:15:00,56.2,49.8,29.98,South,190,11.0,-999.0,79,0.00,,,0.00,Wunderground v.1.15,2013-04-16 07:15:00,
2013-04-16 03:20:00,56.3,49.9,29.98,South,186,9.0,-999.0,79,0.00,,,0.00,Wunderground v.1.15,2013-04-16 07:20:00,
2013-04-16 03:25:00,56.3,49.9,29.98,SSW,203,10.0,-999.0,79,0.00,,,0.00,Wunderground v.1.15,2013-04-16 07:25:00,
2013-04-16 03:30:00,56.6,49.8,29.98,SSW,195,12.0,-999.0,78,0.00,,,0.00,Wunderground v.1.15,2013-04-16 07:30:00,
2013-04-16 03:35:00,56.5,49.7,29.98,SSW,198,12.0,-999.0,78,0.00,,,0.00,Wunderground v.1.15,2013-04-16 07:35:00,
2013-04-16 03:40:00,56.7,49.9,29.97,SSW,200,11.0,-999.0,78,0.00,,,0.00,Wunderground v.1.15,2013-04-16 07:40:00,
2013-04-16 03:45:00,56.7,49.9,29.97,SW,220,12.0,-999.0,78,0.00,,,0.00,Wunderground v.1.15,2013-04-16 07:45:00,
2013-04-16 03:50:00,56.8,50.0,29.97,SSW,203,12.0,-999.0,78,0.00,,,0.00,Wunderground v.1.15,2013-04-16 07:50:00,
2013-04-16 03:55:00,56.7,49.9,29.96,SSW,198,12.0,-999.0,78,0.00,,,0.00,Wunderground v.1.15,2013-04-16 07:55:00,
2013-04-16 04:00:00,56.6,50.2,29.97,South,174,12.0,-999.0,79,0.00,,,0.00,Wunderground v.1.15,2013-04-16 08:00:00,
2013-04-16 04:05:00,56.5,50.1,29.96,SSW,206,11.0,-999.0,79,0.00,,,0.00,Wunderground v.1.15,2013-04-16 08:05:00,
2013-04-16 04:10:00,56.5,50.1,29.96,South,180,11.0,-999.0,79,0.00,,,0.00,Wunderground v.1.15,2013-04-16 08:10:00,
2013-04-16 04:15:00,56.4,50.0,29.96,SSW,204,12.0,-999.0,79,0.00,,,0.00,Wunderground v.1.15,2013-04-16 08:15:00,
2013-04-16 04:20:00,56.3,49.9,29.95,South,186,12.0,-999.0,79,0.00,,,0.00,Wunderground v.1.15,2013-04-16 08:20:00,
2013-04-16 04:25:00,56.3,49.9,29.95,SSW,206,11.0,-999.0,79,0.00,,,0.00,Wunderground v.1.15,2013-04-16 08:25:00,
2013-04-16 04:30:00,56.3,49.9,29.95,South,184,11.0,-999.0,79,0.00,,,0.00,Wunderground v.1.15,2013-04-16 08:30:00,
2013-04-16 04:35:00,56.4,50.0,29.94,SSW,208,12.0,-999.0,79,0.00,,,0.00,Wunderground v.1.15,2013-04-16 08:35:00,
2013-04-16 04:40:00,56.4,50.0,29.95,SSW,192,13.0,-999.0,79,0.00,,,0.00,Wunderground v.1.15,2013-04-16 08:40:00,
2013-04-16 04:45:00,56.2,50.1,29.95,SSW,203,13.0,-999.0,80,0.00,,,0.00,Wunderground v.1.15,2013-04-16 08:45:00,
2013-04-16 04:50:00,56.3,49.9,29.95,SSW,209,14.0,-999.0,79,0.00,,,0.00,Wunderground v.1.15,2013-04-16 08:50:00,
2013-04-16 04:55:00,56.4,50.0,29.95,SSW,201,16.0,-999.0,79,0.00,,,0.00,Wunderground v.1.15,2013-04-16 08:55:00,
2013-04-16 05:00:00,56.3,49.9,29.94,SSW,197,16.0,-999.0,79,0.00,,,0.00,Wunderground v.1.15,2013-04-16 09:00:00,
2013-04-16 05:05:00,56.2,50.1,29.94,SSW,206,15.0,-999.0,80,0.00,,,0.00,Wunderground v.1.15,2013-04-16 09:05:00,
2013-04-16 05:10:00,56.2,50.1,29.94,SSW,210,15.0,-999.0,80,0.00,,,0.00,Wunderground v.1.15,2013-04-16 09:10:00,
2013-04-16 05:15:00,56.4,50.0,29.94,SSW,207,16.0,-999.0,79,0.00,,,0.00,Wunderground v.1.15,2013-04-16 09:15:00,
2013-04-16 05:20:00,56.3,49.9,29.94,South,191,17.0,-999.0,79,0.00,,,0.00,Wunderground v.1.15,2013-04-16 09:20:00,
2013-04-16 05:25:00,56.3,49.9,29.94,SW,232,17.0,-999.0,79,0.00,,,0.00,Wunderground v.1.15,2013-04-16 09:25:00,
2013-04-16 05:30:00,56.2,50.1,29.95,SSW,202,17.0,-999.0,80,0.00,,,0.00,Wunderground v.1.15,2013-04-16 09:30:00,
2013-04-16 05:35:00,56.1,50.0,29.94,SSW,213,15.0,-999.0,80,0.00,,,0.00,Wunderground v.1.15,2013-04-16 09:35:00,
2013-04-16 05:45:00,56.3,50.2,29.93,SSW,199,16.0,-999.0,80,0.00,,,0.00,Wunderground v.1.15,2013-04-16 09:45:00,
2013-04-16 05:50:00,56.4,50.3,29.93,SSW,196,16.0,-999.0,80,0.00,,,0.00,Wunderground v.1.15,2013-04-16 09:50:00,
2013-04-16 05:55:00,56.3,50.2,29.94,South,182,15.0,-999.0,80,0.00,,,0.00,Wunderground v.1.15,2013-04-16 09:55:00,
2013-04-16 06:00:00,56.4,50.3,29.94,SSW,210,17.0,-999.0,80,0.00,,,0.00,Wunderground v.1.15,2013-04-16 10:00:00,
2013-04-16 06:05:00,56.3,50.2,29.94,SSW,207,18.0,-999.0,80,0.00,,,0.00,Wunderground v.1.15,2013-04-16 10:05:00,
2013-04-16 06:10:00,56.3,50.2,29.94,SSW,199,18.0,-999.0,80,0.00,,,0.00,Wunderground v.1.15,2013-04-16 10:10:00,
2013-04-16 06:15:00,56.1,50.3,29.94,SSW,211,17.0,-999.0,81,0.00,,,0.00,Wunderground v.1.15,2013-04-16 10:15:00,
2013-04-16 06:20:00,56.0,50.3,29.94,SW,215,16.0,-999.0,81,0.00,,,0.00,Wunderground v.1.15,2013-04-16 10:20:00,
2013-04-16 06:25:00,55.9,50.2,29.94,SSW,196,17.0,-999.0,81,0.00,,,0.00,Wunderground v.1.15,2013-04-16 10:25:00,
2013-04-16 06:30:00,56.1,50.3,29.94,SSW,203,18.0,-999.0,81,0.00,,,0.00,Wunderground v.1.15,2013-04-16 10:30:00,
2013-04-16 06:35:00,56.1,50.3,29.93,SSW,210,17.0,-999.0,81,0.00,,,0.00,Wunderground v.1.15,2013-04-16 10:35:00,
2013-04-16 06:40:00,56.4,50.6,29.93,SW,215,18.0,-999.0,81,0.00,,,0.00,Wunderground v.1.15,2013-04-16 10:40:00,
2013-04-16 06:45:00,56.4,50.3,29.94,SW,219,19.0,-999.0,80,0.00,,,0.00,Wunderground v.1.15,2013-04-16 10:45:00,
2013-04-16 06:50:00,56.4,50.3,29.94,SSW,202,19.0,-999.0,80,0.00,,,0.00,Wunderground v.1.15,2013-04-16 10:50:00,
2013-04-16 06:55:00,56.4,50.3,29.94,SSW,199,18.0,-999.0,80,0.00,,,0.00,Wunderground v.1.15,2013-04-16 10:55:00,
2013-04-16 07:00:00,56.1,50.3,29.94,SSW,192,16.0,-999.0,81,0.00,,,0.00,Wunderground v.1.15,2013-04-16 11:00:00,
2013-04-16 07:05:00,56.2,50.4,29.94,SSW,198,16.0,-999.0,81,0.00,,,0.00,Wunderground v.1.15,2013-04-16 11:05:00,
2013-04-16 07:10:00,56.2,50.4,29.94,SW,215,15.0,-999.0,81,0.00,,,0.00,Wunderground v.1.15,2013-04-16 11:10:00,
2013-04-16 07:15:00,56.4,50.6,29.95,SSW,213,15.0,-999.0,81,0.00,,,0.00,Wunderground v.1.15,2013-04-16 11:15:00,
2013-04-16 07:19:00,56.4,50.6,29.94,South,188,14.0,-999.0,81,0.00,,,0.00,Wunderground v.1.15,2013-04-16 11:19:00,
2013-04-16 07:24:00,56.6,50.8,29.95,SW,217,14.0,-999.0,81,0.00,,,0.00,Wunderground v.1.15,2013-04-16 11:24:00,
2013-04-16 07:29:00,56.6,50.8,29.95,South,169,15.0,-999.0,81,0.00,,,0.00,Wunderground v.1.15,2013-04-16 11:29:00,
2013-04-16 07:34:00,56.6,50.8,29.95,SSW,196,15.0,-999.0,81,0.00,,,0.00,Wunderground v.1.15,2013-04-16 11:34:00,
2013-04-16 07:39:00,56.6,50.8,29.95,SSW,207,14.0,-999.0,81,0.00,,,0.00,Wunderground v.1.15,2013-04-16 11:39:00,
2013-04-16 07:44:00,56.6,50.8,29.95,SSW,196,13.0,-999.0,81,0.00,,,0.00,Wunderground v.1.15,2013-04-16 11:44:00,
2013-04-16 07:50:00,56.9,51.1,29.93,SW,216,13.0,-999.0,81,0.00,,,0.00,Wunderground v.1.15,2013-04-16 11:50:00,
2013-04-16 07:55:00,56.9,51.1,29.93,SSW,198,13.0,-999.0,81,0.00,,,0.00,Wunderground v.1.15,2013-04-16 11:55:00,
2013-04-16 08:00:00,56.9,51.1,29.94,SSW,201,13.0,-999.0,81,0.00,,,0.00,Wunderground v.1.15,2013-04-16 12:00:00,
2013-04-16 08:09:00,56.7,51.3,29.94,SSW,201,13.0,-999.0,82,0.00,,,0.00,Wunderground v.1.15,2013-04-16 12:09:00,
2013-04-16 08:14:00,56.8,51.4,29.94,SSW,205,15.0,-999.0,82,0.00,,,0.00,Wunderground v.1.15,2013-04-16 12:14:00,
2013-04-16 08:19:00,56.9,51.5,29.93,SSW,207,15.0,-999.0,82,0.00,,,0.00,Wunderground v.1.15,2013-04-16 12:19:00,
2013-04-16 08:25:00,56.8,51.4,29.93,South,184,14.0,-999.0,82,0.00,,,0.00,Wunderground v.1.15,2013-04-16 12:25:00,
2013-04-16 08:30:00,57.1,51.7,29.93,SSW,194,14.0,-999.0,82,0.00,,,0.00,Wunderground v.1.15,2013-04-16 12:30:00,
2013-04-16 08:35:00,57.4,51.9,29.93,South,180,14.0,-999.0,82,0.00,,,0.00,Wunderground v.1.15,2013-04-16 12:35:00,
2013-04-16 08:40:00,57.7,51.9,29.93,South,184,13.0,-999.0,81,0.00,,,0.00,Wunderground v.1.15,2013-04-16 12:40:00,
2013-04-16 08:44:00,57.9,52.1,29.93,South,180,13.0,-999.0,81,0.00,,,0.00,Wunderground v.1.15,2013-04-16 12:44:00,
2013-04-16 08:49:00,58.0,51.9,29.93,SSW,201,14.0,-999.0,80,0.00,,,0.00,Wunderground v.1.15,2013-04-16 12:49:00,
2013-04-16 08:55:00,58.3,52.2,29.94,SW,217,15.0,-999.0,80,0.00,,,0.00,Wunderground v.1.15,2013-04-16 12:55:00,
2013-04-16 09:00:00,58.7,52.2,29.94,SSW,210,15.0,-999.0,79,0.00,,,0.00,Wunderground v.1.15,2013-04-16 13:00:00,
2013-04-16 09:10:00,58.9,52.4,29.94,SW,214,17.0,-999.0,79,0.00,,,0.00,Wunderground v.1.15,2013-04-16 13:10:00,
2013-04-16 09:15:00,58.6,52.4,29.94,SSW,207,17.0,-999.0,80,0.00,,,0.00,Wunderground v.1.15,2013-04-16 13:15:00,
2013-04-16 09:20:00,58.6,52.1,29.94,SW,220,16.0,-999.0,79,0.00,,,0.00,Wunderground v.1.15,2013-04-16 13:20:00,
2013-04-16 09:25:00,58.6,52.1,29.93,SSW,209,15.0,-999.0,79,0.00,,,0.00,Wunderground v.1.15,2013-04-16 13:25:00,
2013-04-16 09:30:00,58.8,52.3,29.93,SW,224,15.0,-999.0,79,0.00,,,0.00,Wunderground v.1.15,2013-04-16 13:30:00,
2013-04-16 09:35:00,58.8,52.3,29.93,SW,227,16.0,-999.0,79,0.00,,,0.00,Wunderground v.1.15,2013-04-16 13:35:00,
2013-04-16 09:40:00,58.9,52.4,29.92,SSW,211,15.0,-999.0,79,0.00,,,0.00,Wunderground v.1.15,2013-04-16 13:40:00,
2013-04-16 09:45:00,59.2,52.7,29.92,SSW,198,15.0,-999.0,79,0.00,,,0.00,Wunderground v.1.15,2013-04-16 13:45:00,
2013-04-16 09:50:00,59.4,52.5,29.92,SSW,203,14.0,-999.0,78,0.00,,,0.00,Wunderground v.1.15,2013-04-16 13:50:00,
2013-04-16 09:55:00,59.5,52.6,29.92,SSW,198,14.0,-999.0,78,0.00,,,0.00,Wunderground v.1.15,2013-04-16 13:55:00,
2013-04-16 10:00:00,60.2,53.3,29.92,SSW,198,15.0,-999.0,78,0.00,,,0.00,Wunderground v.1.15,2013-04-16 14:00:00,
2013-04-16 10:05:00,60.5,53.3,29.92,SSW,211,15.0,-999.0,77,0.00,,,0.00,Wunderground v.1.15,2013-04-16 14:05:00,
2013-04-16 10:10:00,60.7,53.4,29.92,SSW,209,17.0,-999.0,77,0.00,,,0.00,Wunderground v.1.15,2013-04-16 14:10:00,
2013-04-16 10:15:00,60.8,53.2,29.92,SSW,198,17.0,-999.0,76,0.00,,,0.00,Wunderground v.1.15,2013-04-16 14:15:00,
2013-04-16 10:20:00,61.0,53.4,29.92,SSW,207,16.0,-999.0,76,0.00,,,0.00,Wunderground v.1.15,2013-04-16 14:20:00,
2013-04-16 10:25:00,60.7,53.1,29.93,SSW,211,17.0,-999.0,76,0.00,,,0.00,Wunderground v.1.15,2013-04-16 14:25:00,
2013-04-16 10:30:00,60.5,52.9,29.93,SW,231,19.0,-999.0,76,0.00,,,0.00,Wunderground v.1.15,2013-04-16 14:30:00,
2013-04-16 10:35:00,60.5,53.3,29.92,SSW,213,19.0,-999.0,77,0.00,,,0.00,Wunderground v.1.15,2013-04-16 14:35:00,
2013-04-16 10:40:00,60.4,53.2,29.93,SW,223,18.0,-999.0,77,0.00,,,0.00,Wunderground v.1.15,2013-04-16 14:40:00,
2013-04-16 10:45:00,60.0,53.1,29.96,SW,232,17.0,-999.0,78,0.00,,,0.00,Wunderground v.1.15,2013-04-16 14:45:00,
2013-04-16 10:50:00,58.7,53.2,29.96,SW,224,17.0,-999.0,82,0.00,,,0.01,Wunderground v.1.15,2013-04-16 14:50:00,
2013-04-16 11:00:00,56.6,53.4,29.97,SW,222,16.0,-999.0,89,0.00,,,0.01,Wunderground v.1.15,2013-04-16 15:00:00,
2013-04-16 11:05:00,56.4,53.5,29.96,SSW,205,15.0,-999.0,90,0.05,,,0.02,Wunderground v.1.15,2013-04-16 15:05:00,
2013-04-16 11:10:00,56.3,53.7,29.96,SW,218,14.0,-999.0,91,0.06,,,0.03,Wunderground v.1.15,2013-04-16 15:10:00,
2013-04-16 11:15:00,56.2,53.6,29.96,SW,217,13.0,-999.0,91,0.06,,,0.03,Wunderground v.1.15,2013-04-16 15:15:00,
2013-04-16 11:25:00,56.4,54.1,29.97,SW,227,12.0,-999.0,92,0.08,,,0.05,Wunderground v.1.15,2013-04-16 15:25:00,
2013-04-16 11:35:00,56.8,54.5,29.97,SW,217,13.0,-999.0,92,0.10,,,0.06,Wunderground v.1.15,2013-04-16 15:35:00,
2013-04-16 11:40:00,57.0,54.7,29.97,SW,219,13.0,-999.0,92,0.07,,,0.07,Wunderground v.1.15,2013-04-16 15:40:00,
2013-04-16 11:55:00,57.3,54.7,29.94,SSW,199,14.0,-999.0,91,0.07,,,0.08,Wunderground v.1.15,2013-04-16 15:55:00,
2013-04-16 12:00:00,57.4,55.1,29.93,SSW,193,14.0,-999.0,92,0.06,,,0.09,Wunderground v.1.15,2013-04-16 16:00:00,
2013-04-16 12:04:00,57.4,55.1,29.94,SSW,198,13.0,-999.0,92,0.06,,,0.09,Wunderground v.1.15,2013-04-16 16:04:00,
2013-04-16 12:09:00,57.4,55.1,29.94,SSW,196,13.0,-999.0,92,0.07,,,0.10,Wunderground v.1.15,2013-04-16 16:09:00,
2013-04-16 12:14:00,57.4,55.1,29.94,SW,216,14.0,-999.0,92,0.06,,,0.10,Wunderground v.1.15,2013-04-16 16:14:00,
2013-04-16 12:30:00,57.7,55.4,29.93,SSW,213,15.0,-999.0,92,0.06,,,0.12,Wunderground v.1.15,2013-04-16 16:30:00,
2013-04-16 12:35:00,57.9,55.6,29.92,SSW,194,14.0,-999.0,92,0.06,,,0.12,Wunderground v.1.15,2013-04-16 16:35:00,
2013-04-16 12:40:00,58.1,55.8,29.92,SSW,213,15.0,-999.0,92,0.05,,,0.12,Wunderground v.1.15,2013-04-16 16:40:00,
2013-04-16 12:45:00,58.4,56.1,29.92,SSW,209,16.0,-999.0,92,0.04,,,0.12,Wunderground v.1.15,2013-04-16 16:45:00,
2013-04-16 12:49:00,58.3,55.7,29.92,SSW,213,16.0,-999.0,91,0.00,,,0.13,Wunderground v.1.15,2013-04-16 16:49:00,
2013-04-16 12:54:00,58.4,55.8,29.92,SSW,205,17.0,-999.0,91,0.00,,,0.13,Wunderground v.1.15,2013-04-16 16:54:00,
2013-04-16 13:00:00,58.7,56.1,29.92,SSW,195,17.0,-999.0,91,0.00,,,0.13,Wunderground v.1.15,2013-04-16 17:00:00,
2013-04-16 13:05:00,58.9,56.3,29.92,SSW,199,16.0,-999.0,91,0.00,,,0.13,Wunderground v.1.15,2013-04-16 17:05:00,
2013-04-16 13:14:00,59.5,56.9,29.92,SSW,198,14.0,-999.0,91,0.00,,,0.13,Wunderground v.1.15,2013-04-16 17:14:00,
2013-04-16 13:19:00,59.8,56.9,29.92,SW,225,14.0,-999.0,90,0.00,,,0.13,Wunderground v.1.15,2013-04-16 17:19:00,
2013-04-16 13:24:00,60.4,57.5,29.92,SW,215,14.0,-999.0,90,0.00,,,0.13,Wunderground v.1.15,2013-04-16 17:24:00,
2013-04-16 13:29:00,60.6,57.3,29.92,SSW,209,13.0,-999.0,89,0.00,,,0.13,Wunderground v.1.15,2013-04-16 17:29:00,
2013-04-16 13:34:00,60.8,57.2,29.93,SW,221,14.0,-999.0,88,0.00,,,0.13,Wunderground v.1.15,2013-04-16 17:34:00,
2013-04-16 13:39:00,60.8,57.2,29.93,WSW,240,13.0,-999.0,88,0.00,,,0.13,Wunderground v.1.15,2013-04-16 17:39:00,
2013-04-16 13:44:00,61.3,57.7,29.92,SW,227,12.0,-999.0,88,0.00,,,0.13,Wunderground v.1.15,2013-04-16 17:44:00,
2013-04-16 13:49:00,62.0,58.1,29.92,SW,225,11.0,-999.0,87,0.00,,,0.13,Wunderground v.1.15,2013-04-16 17:49:00,
2013-04-16 13:54:00,62.6,58.4,29.92,SW,217,10.0,-999.0,86,0.00,,,0.13,Wunderground v.1.15,2013-04-16 17:54:00,
2013-04-16 14:00:00,63.2,58.9,29.92,SW,215,10.0,-999.0,86,0.00,,,0.13,Wunderground v.1.15,2013-04-16 18:00:00,
2013-04-16 14:04:00,63.7,58.4,29.92,SSW,210,10.0,-999.0,83,0.00,,,0.13,Wunderground v.1.15,2013-04-16 18:04:00,
2013-04-16 14:09:00,63.9,58.6,29.92,SW,228,11.0,-999.0,83,0.00,,,0.13,Wunderground v.1.15,2013-04-16 18:09:00,
2013-04-16 14:14:00,63.5,57.6,29.91,SW,234,12.0,-999.0,81,0.00,,,0.13,Wunderground v.1.15,2013-04-16 18:14:00,
2013-04-16 14:19:00,63.4,58.1,29.91,SW,233,12.0,-999.0,83,0.00,,,0.13,Wunderground v.1.15,2013-04-16 18:19:00,
2013-04-16 14:24:00,63.2,57.6,29.92,SW,227,12.0,-999.0,82,0.00,,,0.13,Wunderground v.1.15,2013-04-16 18:24:00,
2013-04-16 14:29:00,62.8,57.2,29.92,SW,217,13.0,-999.0,82,0.00,,,0.13,Wunderground v.1.15,2013-04-16 18:29:00,
2013-04-16 14:34:00,62.8,57.2,29.92,SW,230,12.0,-999.0,82,0.00,,,0.13,Wunderground v.1.15,2013-04-16 18:34:00,
2013-04-16 14:39:00,62.9,57.7,29.91,SW,235,11.0,-999.0,83,0.00,,,0.13,Wunderground v.1.15,2013-04-16 18:39:00,
2013-04-16 14:44:00,63.3,57.4,29.91,WSW,238,11.0,-999.0,81,0.00,,,0.13,Wunderground v.1.15,2013-04-16 18:44:00,
2013-04-16 14:50:00,63.6,57.7,29.91,WSW,243,11.0,-999.0,81,0.00,,,0.13,Wunderground v.1.15,2013-04-16 18:50:00,
2013-04-16 14:55:00,63.9,58.0,29.91,WSW,244,11.0,-999.0,81,0.00,,,0.13,Wunderground v.1.15,2013-04-16 18:55:00,
2013-04-16 15:00:00,64.3,58.3,29.90,SW,232,10.0,-999.0,81,0.00,,,0.13,Wunderground v.1.15,2013-04-16 19:00:00,
2013-04-16 15:04:00,64.7,58.4,29.90,SW,227,9.0,-999.0,80,0.00,,,0.13,Wunderground v.1.15,2013-04-16 19:04:00,
2013-04-16 15:09:00,64.9,58.6,29.90,SW,228,9.0,-999.0,80,0.00,,,0.13,Wunderground v.1.15,2013-04-16 19:09:00,
2013-04-16 15:14:00,64.8,58.1,29.90,SW,222,10.0,-999.0,79,0.00,,,0.13,Wunderground v.1.15,2013-04-16 19:14:00,
2013-04-16 15:20:00,64.8,58.1,29.90,SW,226,10.0,-999.0,79,0.00,,,0.13,Wunderground v.1.15,2013-04-16 19:20:00,
2013-04-16 15:25:00,65.2,58.5,29.89,WSW,241,9.0,-999.0,79,0.00,,,0.13,Wunderground v.1.15,2013-04-16 19:25:00,
2013-04-16 15:30:00,65.6,58.9,29.89,SW,236,9.0,-999.0,79,0.00,,,0.13,Wunderground v.1.15,2013-04-16 19:30:00,
2013-04-16 15:35:00,66.1,59.4,29.90,SW,236,9.0,-999.0,79,0.00,,,0.13,Wunderground v.1.15,2013-04-16 19:35:00,
2013-04-16 15:40:00,66.0,58.6,29.90,WSW,252,9.0,-999.0,77,0.00,,,0.13,Wunderground v.1.15,2013-04-16 19:40:00,
2013-04-16 15:45:00,65.9,58.8,29.90,SW,234,9.0,-999.0,78,0.00,,,0.13,Wunderground v.1.15,2013-04-16 19:45:00,
2013-04-16 15:55:00,65.7,58.7,29.89,WSW,247,12.0,-999.0,78,0.00,,,0.13,Wunderground v.1.15,2013-04-16 19:55:00,
2013-04-16 16:00:00,65.6,58.6,29.90,WSW,246,12.0,-999.0,78,0.00,,,0.13,Wunderground v.1.15,2013-04-16 20:00:00,
2013-04-16 16:05:00,65.3,58.6,29.89,WSW,251,9.0,-999.0,79,0.00,,,0.13,Wunderground v.1.15,2013-04-16 20:05:00,
2013-04-16 16:10:00,65.2,58.5,29.90,SW,232,9.0,-999.0,79,0.00,,,0.13,Wunderground v.1.15,2013-04-16 20:10:00,
2013-04-16 16:15:00,65.2,58.5,29.89,SW,233,9.0,-999.0,79,0.00,,,0.13,Wunderground v.1.15,2013-04-16 20:15:00,
2013-04-16 16:20:00,65.2,58.5,29.89,WSW,242,10.0,-999.0,79,0.00,,,0.13,Wunderground v.1.15,2013-04-16 20:20:00,
2013-04-16 16:25:00,65.0,58.7,29.90,SW,236,10.0,-999.0,80,0.00,,,0.13,Wunderground v.1.15,2013-04-16 20:25:00,
2013-04-16 16:30:00,64.5,58.5,29.90,WSW,255,10.0,-999.0,81,0.00,,,0.13,Wunderground v.1.15,2013-04-16 20:30:00,
2013-04-16 16:35:00,63.6,58.3,29.90,WNW,296,14.0,-999.0,83,0.00,,,0.13,Wunderground v.1.15,2013-04-16 20:35:00,
2013-04-16 16:40:00,62.7,57.5,29.91,WNW,301,12.0,-999.0,83,0.00,,,0.13,Wunderground v.1.15,2013-04-16 20:40:00,
2013-04-16 16:45:00,60.8,55.6,29.91,WNW,296,8.0,-999.0,83,0.00,,,0.13,Wunderground v.1.15,2013-04-16 20:45:00,
2013-04-16 16:50:00,58.7,54.5,29.92,West,275,11.0,-999.0,86,0.00,,,0.14,Wunderground v.1.15,2013-04-16 20:50:00,
2013-04-16 16:55:00,57.5,54.0,29.92,WNW,286,10.0,-999.0,88,0.00,,,0.14,Wunderground v.1.15,2013-04-16 20:55:00,
2013-04-16 17:00:00,56.6,53.7,29.93,West,271,8.0,-999.0,90,0.00,,,0.14,Wunderground v.1.15,2013-04-16 21:00:00,
2013-04-16 17:05:00,56.2,53.3,29.93,West,279,9.0,-999.0,90,0.00,,,0.14,Wunderground v.1.15,2013-04-16 21:05:00,
2013-04-16 17:10:00,56.0,53.4,29.94,WNW,288,9.0,-999.0,91,0.00,,,0.14,Wunderground v.1.15,2013-04-16 21:10:00,
2013-04-16 17:15:00,55.8,53.2,29.94,WNW,283,9.0,-999.0,91,0.00,,,0.14,Wunderground v.1.15,2013-04-16 21:15:00,
2013-04-16 17:20:00,55.6,53.0,29.95,WSW,248,9.0,-999.0,91,0.00,,,0.14,Wunderground v.1.15,2013-04-16 21:20:00,
2013-04-16 17:25:00,55.5,53.2,29.95,West,276,10.0,-999.0,92,0.00,,,0.14,Wunderground v.1.15,2013-04-16 21:25:00,
2013-04-16 17:30:00,55.4,53.1,29.95,WNW,301,7.0,-999.0,92,0.00,,,0.15,Wunderground v.1.15,2013-04-16 21:30:00,
2013-04-16 17:35:00,55.3,53.3,29.96,West,261,6.0,-999.0,93,0.00,,,0.15,Wunderground v.1.15,2013-04-16 21:35:00,
2013-04-16 17:40:00,55.2,53.2,29.97,West,265,7.0,-999.0,93,0.00,,,0.15,Wunderground v.1.15,2013-04-16 21:40:00,
2013-04-16 17:45:00,55.2,53.2,29.97,West,277,7.0,-999.0,93,0.00,,,0.15,Wunderground v.1.15,2013-04-16 21:45:00,
2013-04-16 17:50:00,55.1,53.1,29.97,West,269,8.0,-999.0,93,0.00,,,0.15,Wunderground v.1.15,2013-04-16 21:50:00,
2013-04-16 17:55:00,55.1,53.1,29.97,WNW,295,7.0,-999.0,93,0.00,,,0.16,Wunderground v.1.15,2013-04-16 21:55:00,
2013-04-16 18:00:00,55.1,53.1,29.98,WSW,257,7.0,-999.0,93,0.00,,,0.16,Wunderground v.1.15,2013-04-16 22:00:00,
2013-04-16 18:05:00,55.1,53.1,29.98,West,265,8.0,-999.0,93,0.00,,,0.16,Wunderground v.1.15,2013-04-16 22:05:00,
2013-04-16 18:10:00,54.9,52.9,29.98,WNW,288,9.0,-999.0,93,0.00,,,0.16,Wunderground v.1.15,2013-04-16 22:10:00,
2013-04-16 18:15:00,54.9,52.9,29.98,West,265,9.0,-999.0,93,0.00,,,0.16,Wunderground v.1.15,2013-04-16 22:15:00,
2013-04-16 18:20:00,54.7,52.7,29.99,West,261,8.0,-999.0,93,0.00,,,0.16,Wunderground v.1.15,2013-04-16 22:20:00,
2013-04-16 18:25:00,54.6,52.6,29.99,West,259,9.0,-999.0,93,0.00,,,0.16,Wunderground v.1.15,2013-04-16 22:25:00,
2013-04-16 18:30:00,54.5,52.5,29.99,West,265,9.0,-999.0,93,0.00,,,0.16,Wunderground v.1.15,2013-04-16 22:30:00,
2013-04-16 18:34:00,54.5,52.5,30.00,West,279,9.0,-999.0,93,0.00,,,0.16,Wunderground v.1.15,2013-04-16 22:34:00,
2013-04-16 18:39:00,54.4,52.4,30.00,WNW,285,8.0,-999.0,93,0.00,,,0.16,Wunderground v.1.15,2013-04-16 22:39:00,
2013-04-16 18:44:00,54.2,52.2,30.01,West,273,6.0,-999.0,93,0.00,,,0.16,Wunderground v.1.15,2013-04-16 22:44:00,
2013-04-16 18:49:00,54.1,52.1,30.01,WNW,291,5.0,-999.0,93,0.00,,,0.17,Wunderground v.1.15,2013-04-16 22:49:00,
2013-04-16 18:54:00,53.8,51.8,30.01,WNW,294,5.0,-999.0,93,0.00,,,0.17,Wunderground v.1.15,2013-04-16 22:54:00,
2013-04-16 19:00:00,53.3,51.3,30.01,West,262,6.0,-999.0,93,0.00,,,0.17,Wunderground v.1.15,2013-04-16 23:00:00,
2013-04-16 19:04:00,53.3,51.3,30.01,WSW,252,8.0,-999.0,93,0.00,,,0.17,Wunderground v.1.15,2013-04-16 23:04:00,
2013-04-16 19:09:00,53.2,50.9,30.01,WSW,253,10.0,-999.0,92,0.00,,,0.17,Wunderground v.1.15,2013-04-16 23:09:00,
2013-04-16 19:14:00,52.3,48.5,30.01,WSW,252,11.0,-999.0,87,0.00,,,0.17,Wunderground v.1.15,2013-04-16 23:14:00,
2013-04-16 19:19:00,51.8,47.1,30.01,WSW,258,12.0,-999.0,84,0.00,,,0.17,Wunderground v.1.15,2013-04-16 23:19:00,
2013-04-16 19:24:00,51.6,46.9,30.02,WSW,257,11.0,-999.0,84,0.00,,,0.17,Wunderground v.1.15,2013-04-16 23:24:00,
2013-04-16 19:29:00,51.4,47.4,30.02,West,261,10.0,-999.0,86,0.00,,,0.17,Wunderground v.1.15,2013-04-16 23:29:00,
2013-04-16 19:34:00,51.4,47.0,30.02,West,275,9.0,-999.0,85,0.00,,,0.17,Wunderground v.1.15,2013-04-16 23:34:00,
2013-04-16 19:39:00,51.4,46.4,30.03,West,276,10.0,-999.0,83,0.00,,,0.17,Wunderground v.1.15,2013-04-16 23:39:00,
2013-04-16 19:44:00,51.2,46.2,30.03,West,268,9.0,-999.0,83,0.00,,,0.17,Wunderground v.1.15,2013-04-16 23:44:00,
2013-04-16 19:49:00,51.1,46.1,30.04,West,276,9.0,-999.0,83,0.00,,,0.17,Wunderground v.1.15,2013-04-16 23:49:00,
2013-04-16 19:54:00,51.1,46.4,30.04,West,259,9.0,-999.0,84,0.00,,,0.17,Wunderground v.1.15,2013-04-16 23:54:00,
2013-04-16 20:00:00,51.0,46.6,30.05,WSW,257,9.0,-999.0,85,0.00,,,0.17,Wunderground v.1.15,2013-04-17 00:00:00,
2013-04-16 20:05:00,50.8,46.8,30.05,WSW,255,9.0,-999.0,86,0.00,,,0.17,Wunderground v.1.15,2013-04-17 00:05:00,
2013-04-16 20:09:00,50.6,46.9,30.05,West,264,10.0,-999.0,87,0.00,,,0.17,Wunderground v.1.15,2013-04-17 00:09:00,
2013-04-16 20:14:00,50.5,46.8,30.06,West,267,9.0,-999.0,87,0.00,,,0.17,Wunderground v.1.15,2013-04-17 00:14:00,
2013-04-16 20:19:00,50.4,47.0,30.07,West,262,7.0,-999.0,88,0.00,,,0.17,Wunderground v.1.15,2013-04-17 00:19:00,
2013-04-16 20:24:00,50.4,47.0,30.07,West,267,6.0,-999.0,88,0.00,,,0.17,Wunderground v.1.15,2013-04-17 00:24:00,
2013-04-16 20:29:00,50.3,46.9,30.07,West,275,4.0,-999.0,88,0.00,,,0.17,Wunderground v.1.15,2013-04-17 00:29:00,
2013-04-16 20:35:00,50.4,47.3,30.07,WNW,298,3.0,-999.0,89,0.00,,,0.17,Wunderground v.1.15,2013-04-17 00:35:00,
2013-04-16 20:40:00,50.4,47.3,30.07,WNW,302,3.0,-999.0,89,0.00,,,0.17,Wunderground v.1.15,2013-04-17 00:40:00,
2013-04-16 20:44:00,50.4,47.3,30.08,NW,310,1.0,-999.0,89,0.00,,,0.17,Wunderground v.1.15,2013-04-17 00:44:00,
2013-04-16 20:49:00,50.4,47.0,30.09,WNW,292,4.0,-999.0,88,0.00,,,0.17,Wunderground v.1.15,2013-04-17 00:49:00,
2013-04-16 20:54:00,50.5,47.1,30.09,WNW,291,4.0,-999.0,88,0.00,,,0.17,Wunderground v.1.15,2013-04-17 00:54:00,
2013-04-16 21:00:00,50.4,47.0,30.08,WNW,293,4.0,-999.0,88,0.00,,,0.17,Wunderground v.1.15,2013-04-17 01:00:00,
2013-04-16 21:10:00,50.4,47.0,30.09,WNW,300,3.0,-999.0,88,0.00,,,0.17,Wunderground v.1.15,2013-04-17 01:10:00,
2013-04-16 21:14:00,50.3,46.9,30.09,WNW,300,2.0,-999.0,88,0.00,,,0.17,Wunderground v.1.15,2013-04-17 01:14:00,
2013-04-16 21:19:00,50.2,46.8,30.09,WNW,283,2.0,-999.0,88,0.00,,,0.17,Wunderground v.1.15,2013-04-17 01:19:00,
2013-04-16 21:24:00,50.2,46.8,30.09,WNW,293,3.0,-999.0,88,0.00,,,0.17,Wunderground v.1.15,2013-04-17 01:24:00,
2013-04-16 21:29:00,50.1,46.7,30.09,WNW,302,4.0,-999.0,88,0.00,,,0.17,Wunderground v.1.15,2013-04-17 01:29:00,
2013-04-16 21:34:00,50.1,46.7,30.09,WNW,299,4.0,-999.0,88,0.00,,,0.17,Wunderground v.1.15,2013-04-17 01:34:00,
2013-04-16 21:39:00,50.1,46.7,30.10,WNW,292,4.0,-999.0,88,0.00,,,0.17,Wunderground v.1.15,2013-04-17 01:39:00,
2013-04-16 21:44:00,50.1,47.0,30.10,WNW,298,3.0,-999.0,89,0.00,,,0.17,Wunderground v.1.15,2013-04-17 01:44:00,
2013-04-16 21:49:00,50.0,46.6,30.10,WNW,294,3.0,-999.0,88,0.00,,,0.17,Wunderground v.1.15,2013-04-17 01:49:00,
2013-04-16 21:54:00,49.9,46.5,30.11,WNW,290,4.0,-999.0,88,0.00,,,0.17,Wunderground v.1.15,2013-04-17 01:54:00,
2013-04-16 22:00:00,49.9,46.5,30.11,WNW,296,4.0,-999.0,88,0.00,,,0.17,Wunderground v.1.15,2013-04-17 02:00:00,
2013-04-16 22:05:00,49.9,46.5,30.12,NW,306,4.0,-999.0,88,0.00,,,0.17,Wunderground v.1.15,2013-04-17 02:05:00,
2013-04-16 22:09:00,49.8,46.4,30.12,NW,308,4.0,-999.0,88,0.00,,,0.17,Wunderground v.1.15,2013-04-17 02:09:00,
2013-04-16 22:15:00,49.7,46.3,30.12,NW,310,4.0,-999.0,88,0.00,,,0.17,Wunderground v.1.15,2013-04-17 02:15:00,
2013-04-16 22:19:00,49.6,46.2,30.13,WNW,299,5.0,-999.0,88,0.00,,,0.17,Wunderground v.1.15,2013-04-17 02:19:00,
2013-04-16 22:24:00,49.6,46.2,30.13,NW,307,4.0,-999.0,88,0.00,,,0.17,Wunderground v.1.15,2013-04-17 02:24:00,
2013-04-16 22:29:00,49.3,45.6,30.14,NW,306,4.0,-999.0,87,0.00,,,0.17,Wunderground v.1.15,2013-04-17 02:29:00,
2013-04-16 22:34:00,49.1,45.4,30.14,NW,311,6.0,-999.0,87,0.00,,,0.17,Wunderground v.1.15,2013-04-17 02:34:00,
2013-04-16 22:39:00,49.0,45.3,30.14,NW,307,7.0,-999.0,87,0.00,,,0.17,Wunderground v.1.15,2013-04-17 02:39:00,
2013-04-16 22:44:00,48.9,45.2,30.13,NW,308,6.0,-999.0,87,0.00,,,0.17,Wunderground v.1.15,2013-04-17 02:44:00,
2013-04-16 22:49:00,48.8,45.4,30.13,NW,309,5.0,-999.0,88,0.00,,,0.17,Wunderground v.1.15,2013-04-17 02:49:00,
2013-04-16 22:54:00,48.8,45.4,30.13,NW,313,3.0,-999.0,88,0.00,,,0.17,Wunderground v.1.15,2013-04-17 02:54:00,
2013-04-16 23:00:00,48.7,45.3,30.13,NW,313,2.0,-999.0,88,0.00,,,0.17,Wunderground v.1.15,2013-04-17 03:00:00,
2013-04-16 23:04:00,48.6,45.2,30.14,NNW,346,3.0,-999.0,88,0.00,,,0.17,Wunderground v.1.15,2013-04-17 03:04:00,
2013-04-16 23:09:00,47.5,42.6,30.14,North,349,7.0,-999.0,83,0.00,,,0.17,Wunderground v.1.15,2013-04-17 03:09:00,
2013-04-16 23:14:00,47.4,41.9,30.14,North,355,8.0,-999.0,81,0.00,,,0.17,Wunderground v.1.15,2013-04-17 03:14:00,
2013-04-16 23:19:00,47.3,41.8,30.14,North,355,6.0,-999.0,81,0.00,,,0.17,Wunderground v.1.15,2013-04-17 03:19:00,
2013-04-16 23:24:00,47.3,41.8,30.14,North,360,4.0,-999.0,81,0.00,,,0.17,Wunderground v.1.15,2013-04-17 03:24:00,
2013-04-16 23:29:00,47.1,40.6,30.13,North,5,4.0,-999.0,78,0.00,,,0.17,Wunderground v.1.15,2013-04-17 03:29:00,
2013-04-16 23:34:00,47.0,40.5,30.13,North,355,5.0,-999.0,78,0.00,,,0.17,Wunderground v.1.15,2013-04-17 03:34:00,
2013-04-16 23:39:00,46.8,40.0,30.14,North,350,5.0,-999.0,77,0.00,,,0.17,Wunderground v.1.15,2013-04-17 03:39:00,
2013-04-16 23:44:00,46.8,40.3,30.14,North,355,4.0,-999.0,78,0.00,,,0.17,Wunderground v.1.15,2013-04-17 03:44:00,
2013-04-16 23:49:00,46.6,39.8,30.14,North,355,4.0,-999.0,77,0.00,,,0.17,Wunderground v.1.15,2013-04-17 03:49:00,
2013-04-16 23:54:00,46.6,39.4,30.14,North,355,3.0,-999.0,76,0.00,,,0.17,Wunderground v.1.15,2013-04-17 03:54:00,